Flag for Germany Weather past 2 weeks in Heidenheim an der Brenz, Baden-Württemberg, Germany

Now
65 °F

Thunderstorms. Overcast.


Feels Like: 65 °F
Forecast: 56 / 73 °F
Wind: 2 mph from East

Location: Stoetten

Current Time: Jul 23, 2014 at 1:13:45 AM

Latest Report: Jul 22, 2014 at 7:00 PM


Visibility: 9 mi

Pressure: 29.93 "Hg

Humidity: 96%

Dew point: 64 °F

Location of Heidenheim an der BrenzLocation

Historic Weather in Heidenheim an der Brenz — Graph

°F

Heidenheim an der Brenz temperature yesterday

Maximum temperature yesterday: 70 °F (at 5:00 PM)
Minimum temperature yesterday: 60 °F (at 6:00 AM)
Average temperature yesterday: 63 °F

Past Weeks' High & Low Weather Summary

 TemperatureHumidityPressure
High85 °F (Jul 19, 5:00 PM)100% (Jul 8, 2:00 AM)30.19 "Hg (Jul 8, 2:00 AM)
Low47 °F (Jul 9, 11:00 PM)31% (Jul 18, 4:00 PM)29.78 "Hg (Jul 13, 5:00 PM)
Average63 °F78%29.94 "Hg
* Reported Jul 7 7:00 PM — Jul 22 7:00 PM, Heidenheim an der Brenz, Weather by CustomWeather, © 2014

Note: Actual official high and low records may vary slightly from our data, if they occured in-between our weather recording intervals... More about our weather records

Advertising

Heidenheim an der Brenz weather history for previous 24 hours

 ConditionsComfort  
Time TempWeatherWind HumidityBarometerVisibility
7:00 PM
Jul 22
65 °FThunderstorms. Overcast.2 mph96%29.93 "Hg9 mi
6:00 PM67 °FThunderstorms. Overcast.5 mph89%29.91 "Hg10 mi
5:00 PM70 °FThunderstorms. Overcast.3 mph83%29.89 "Hg12 mi
4:00 PM69 °FOvercast.N/A86%29.90 "Hg12 mi
3:00 PM67 °FOvercast.5 mph89%29.90 "Hg10 mi
2:00 PM65 °FLight rain. Overcast.5 mph95%29.91 "Hg7 mi
1:00 PM65 °FLight rain. Overcast.3 mph99%29.90 "Hg6 mi
12:00 PM64 °FLight rain. Overcast.5 mph98%29.90 "Hg5 mi
11:00 AM63 °FOvercast.6 mph99%29.88 "Hg6 mi
10:00 AM62 °FOvercast.6 mph100%29.87 "Hg6 mi
9:00 AM62 °FOvercast.3 mph100%29.85 "Hg5 mi
8:00 AM60 °FRain. Dense fog.3 mph100%29.85 "Hg0 mi
7:00 AM60 °FLight rain. Dense fog.2 mph100%29.84 "Hg1 mi
6:00 AM60 °FLight rain. Dense fog.5 mph100%29.84 "Hg0 mi
5:00 AM60 °FLight rain. Low clouds.5 mph100%29.82 "Hg0 mi
4:00 AM61 °FRain. Low clouds.6 mph100%29.82 "Hg0 mi
3:00 AM61 °FLight rain. Low clouds.5 mph100%29.83 "Hg0 mi
2:00 AM61 °FLight rain. Low clouds.6 mph100%29.84 "Hg0 mi
1:00 AM61 °FRain. Low clouds.6 mph100%29.86 "Hg0 mi
Weather by CustomWeather, © 2014

See weather overviewHow to use our weather pages